N2PUI Weather Reports


Display with metric or nautical units.
time (UTC)temp
F
wind
direction
speed
MPH
gust
MPH
rain 1hr
in
rain 24hr
in
rain mn
in
humidity
%
barometer
mb
20260904183851 77 149 2.0 3.0 0.00 0.36 0.36 63 1014.4
20260904183341 78 238 3.0 5.0 0.00 0.36 0.36 61 1015.0
20260904182836 78 314 5.0 6.0 0.00 0.36 0.36 61 1014.7
20260904182331 78 184 1.0 1.0 0.00 0.36 0.36 63 1014.6
20260904181827 78 294 5.0 8.0 0.00 0.36 0.36 62 1014.8
20260904181327 78 233 2.0 2.0 0.00 0.36 0.36 63 1014.6
20260904180822 77 287 8.0 9.0 0.00 0.36 0.36 61 1014.9
20260904180317 77 267 5.0 6.0 0.00 0.36 0.36 64 1015.1
20260904175816 76 215 2.0 2.0 0.00 0.36 0.36 65 1015.0
20260904175314 77 296 5.0 6.0 0.00 0.36 0.36 64 1014.9
20260904174809 76 313 7.0 9.0 0.00 0.36 0.36 65 1015.2
20260904174305 75 192 0.0 1.0 0.00 0.36 0.36 68 1015.1
20260904173801 76 54 3.0 5.0 0.00 0.36 0.36 66 1015.3
20260904173256 77 306 7.0 10.0 0.00 0.36 0.36 64 1015.2
20260904172752 76 174 1.0 2.0 0.00 0.36 0.36 69 1015.2
20260904172251 77 318 5.0 7.0 0.00 0.36 0.36 67 1015.4
20260904171746 76 273 4.0 6.0 0.00 0.36 0.36 66 1015.4
20260904171241 75 240 6.0 7.0 0.00 0.36 0.36 68 1015.3
20260904170738 75 273 6.0 7.0 0.00 0.36 0.36 67 1015.3
20260904170233 75 275 6.0 9.0 0.00 0.36 0.36 67 1015.5
20260904165733 74 287 3.0 3.0 0.00 0.36 0.36 69 1015.5
20260904165227 75 267 6.0 8.0 0.00 0.36 0.36 67 1015.5
20260904164727 76 294 6.0 7.0 0.00 0.36 0.36 66 1015.4
20260904164222 76 279 3.0 6.0 0.00 0.36 0.36 65 1015.3
20260904163718 76 148 1.0 1.0 0.00 0.36 0.36 67 1015.2
20260904163213 76 250 3.0 5.0 0.00 0.36 0.36 66 1015.1
20260904162712 75 250 1.0 3.0 0.00 0.36 0.36 69 1015.3
20260904162207 76 291 3.0 6.0 0.00 0.36 0.36 69 1015.0
20260904161703 76 173 2.0 2.0 0.00 0.36 0.36 70 1015.3
20260904161158 76 191 3.0 3.0 0.00 0.36 0.36 69 1015.3
20260904160654 76 191 1.0 2.0 0.00 0.36 0.36 69 1015.2
20260904160149 76 194 1.0 2.0 0.00 0.36 0.36 71 1015.3
20260904155644 75 336 4.0 5.0 0.00 0.36 0.36 71 1015.3
20260904155143 75 232 3.0 5.0 0.00 0.36 0.36 71 1015.3
20260904154642 74 299 3.0 3.0 0.00 0.36 0.36 72 1015.4
20260904154136 74 319 4.0 5.0 0.00 0.36 0.36 73 1015.1
20260904153631 74 234 3.0 5.0 0.00 0.36 0.36 74 1015.4
20260904153127 75 237 2.0 3.0 0.00 0.36 0.36 73 1015.2
20260904152623 74 112 2.0 2.0 0.00 0.36 0.36 74 1015.6
20260904152119 75 309 2.0 3.0 0.00 0.36 0.36 74 1015.8
20260904151613 74 34 2.0 3.0 0.00 0.36 0.36 75 1015.7
20260904151112 74 246 3.0 3.0 0.00 0.36 0.36 75 1015.8
20260904150608 74 76 1.0 2.0 0.00 0.36 0.36 77 1015.6
20260904145601 72 270 2.0 2.0 0.00 0.36 0.36 77 1015.5
20260904145056 72 329 5.0 7.0 0.00 0.36 0.36 79 1015.7
20260904144552 72 198 2.0 3.0 0.00 0.36 0.36 79 1015.7
20260904144048 71 195 1.0 2.0 0.00 0.36 0.36 80 1015.7
20260904143544 71 284 5.0 6.0 0.00 0.36 0.36 79 1015.8
20260904143040 73 206 1.0 2.0 0.00 0.36 0.36 79 1015.7
20260904142536 73 230 3.0 3.0 0.00 0.36 0.36 78 1015.7
20260904142032 72 155 0.0 1.0 0.00 0.36 0.36 80 1015.7
20260904141526 72 148 1.0 2.0 0.00 0.36 0.36 80 1015.7
20260904141022 71 335 5.0 6.0 0.00 0.36 0.36 80 1015.6
20260904140516 71 107 1.0 2.0 0.00 0.36 0.36 83 1016.0
20260904140016 71 328 3.0 3.0 0.00 0.36 0.36 83 1015.8
20260904135516 70 147 0.0 0.0 0.00 0.36 0.36 85 1015.8
20260904135012 72 22 7.0 9.0 0.00 0.36 0.36 83 1015.5
20260904134507 70 187 1.0 2.0 0.00 0.36 0.36 85 1015.7
20260904134001 69 273 2.0 5.0 0.00 0.36 0.36 86 1015.8
20260904133455 70 198 2.0 2.0 0.00 0.36 0.36 86 1015.8
20260904132951 69 180 1.0 1.0 0.00 0.36 0.36 89 1015.8
20260904132446 67 168 1.0 2.0 0.00 0.36 0.36 93 1015.4
20260904131946 67 321 3.0 5.0 0.00 0.36 0.36 95 1015.6
20260904131441 66 195 1.0 1.0 0.00 0.36 0.36 95 1015.5
20260904130937 66 141 1.0 1.0 0.00 0.36 0.36 95 1015.7
20260904130436 65 206 0.0 0.0 0.00 0.36 0.36 95 1015.6
20260904125931 66 185 1.0 1.0 0.00 0.36 0.36 95 1015.6
20260904125427 66 320 3.0 3.0 0.00 0.36 0.36 95 1015.5
20260904124926 66 258 2.0 2.0 0.00 0.36 0.36 95 1015.7
20260904124422 66 189 1.0 1.0 0.00 0.36 0.36 95 1015.6
20260904123913 65 188 2.0 3.0 0.00 0.36 0.36 95 1015.6
20260904123413 65 296 4.0 5.0 0.00 0.36 0.36 95 1015.7
20260904122908 66 169 0.0 0.0 0.00 0.36 0.36 95 1015.7
20260904122407 65 176 0.0 0.0 0.00 0.36 0.36 95 1015.5
20260904121902 65 54 1.0 2.0 0.00 0.36 0.36 95 1015.5
20260904121359 65 262 1.0 2.0 0.00 0.36 0.36 95 1015.4
20260904120855 65 169 0.0 0.0 0.00 0.36 0.36 95 1015.5
20260904120351 65 176 1.0 2.0 0.00 0.36 0.36 95 1015.6
20260904115846 65 143 0.0 0.0 0.00 0.36 0.36 95 1015.3
20260904115341 64 141 0.0 0.0 0.00 0.36 0.36 95 1015.5
20260904114835 64 265 1.0 2.0 0.00 0.36 0.36 95 1015.4
20260904114330 65 187 0.0 0.0 0.00 0.36 0.36 95 1015.5
20260904113825 65 153 0.0 0.0 0.00 0.36 0.36 95 1015.4
20260904113324 64 164 0.0 0.0 0.00 0.36 0.36 95 1015.3
20260904112819 64 181 0.0 0.0 0.00 0.36 0.36 95 1015.4
20260904112315 64 184 0.0 0.0 0.00 0.36 0.36 95 1015.3
20260904111810 64 173 0.0 0.0 0.00 0.36 0.36 95 1015.1
20260904111306 64 181 0.0 0.0 0.00 0.36 0.36 95 1015.5
20260904110802 64 183 0.0 0.0 0.00 0.36 0.36 95 1015.2
20260904110300 64 187 0.0 0.0 0.00 0.36 0.36 95 1015.3
20260904105756 64 140 0.0 0.0 0.00 0.36 0.36 95 1015.1
20260904105250 64 163 0.0 0.0 0.00 0.36 0.36 95 1015.1
20260904104746 65 156 0.0 0.0 0.00 0.36 0.36 95 1015.1
20260904104241 65 180 0.0 0.0 0.00 0.36 0.36 95 1015.1
20260904103738 65 179 0.0 0.0 0.00 0.36 0.36 95 1015.2
20260904103232 65 173 0.0 0.0 0.00 0.36 0.36 95 1014.9
20260904102728 65 278 3.0 3.0 0.00 0.36 0.36 95 1015.0
20260904102223 65 169 0.0 0.0 0.00 0.36 0.36 95 1015.0
20260904101720 66 157 0.0 0.0 0.00 0.36 0.36 95 1014.7
20260904101215 65 178 0.0 0.0 0.00 0.36 0.36 95 1014.7
20260904100711 65 177 0.0 0.0 0.00 0.36 0.36 95 1014.7
20260904100207 65 178 0.0 0.0 0.00 0.36 0.36 95 1014.7
20260904095706 65 178 0.0 0.0 0.00 0.36 0.36 95 1014.7
20260904095200 65 178 0.0 0.0 0.00 0.36 0.36 95 1014.7
20260904094650 65 179 0.0 0.0 0.00 0.36 0.36 95 1014.7
20260904094145 65 180 0.0 0.0 0.00 0.36 0.36 95 1014.6
20260904093642 65 180 0.0 0.0 0.00 0.36 0.36 95 1014.5
20260904093141 65 180 0.0 0.0 0.00 0.36 0.36 95 1014.6
20260904092638 65 180 0.0 0.0 0.00 0.36 0.36 95 1014.6
20260904092134 65 180 0.0 0.0 0.00 0.36 0.36 95 1014.7
20260904091630 65 184 0.0 0.0 0.00 0.36 0.36 95 1014.6
20260904091129 64 180 0.0 0.0 0.00 0.36 0.36 95 1014.6
20260904090625 64 179 0.0 0.0 0.00 0.36 0.36 95 1014.7
20260904090120 64 179 0.0 0.0 0.00 0.36 0.36 95 1014.5
20260904085615 64 179 0.0 0.0 0.00 0.36 0.36 95 1014.7
20260904085114 64 179 0.0 0.0 0.00 0.36 0.36 95 1014.6
20260904084610 65 179 0.0 0.0 0.00 0.36 0.36 95 1014.6
20260904084107 64 179 0.0 0.0 0.00 0.36 0.36 95 1014.4
20260904083603 64 179 0.0 0.0 0.00 0.36 0.36 95 1014.6
20260904083058 64 179 0.0 0.0 0.00 0.36 0.36 95 1014.4
20260904082553 64 177 0.0 0.0 0.00 0.36 0.36 95 1014.3
20260904082048 64 135 0.0 0.0 0.00 0.36 0.36 95 1014.3
20260904081543 65 148 0.0 0.0 0.00 0.36 0.36 95 1013.8
20260904081038 65 162 0.0 0.0 0.00 0.36 0.36 95 1013.9
20260904080534 65 167 0.0 0.0 0.00 0.36 0.36 95 1013.8
20260904080030 65 149 0.0 0.0 0.00 0.36 0.36 95 1014.0
20260904075526 65 153 0.0 0.0 0.00 0.36 0.36 95 1013.8
20260904075021 65 153 0.0 0.0 0.00 0.36 0.36 95 1013.6
20260904074515 64 153 0.0 0.0 0.00 0.36 0.36 95 1013.8
20260904074015 64 117 0.0 0.0 0.00 0.36 0.36 95 1013.8
20260904073510 65 161 0.0 0.0 0.00 0.36 0.36 95 1013.7
20260904073006 65 161 0.0 0.0 0.00 0.36 0.36 95 1013.9
20260904072502 65 153 0.0 0.0 0.00 0.36 0.36 95 1013.5
20260904071956 65 160 0.0 0.0 0.00 0.36 0.36 95 1013.7
20260904071451 65 174 0.0 0.0 0.00 0.36 0.36 95 1013.7
20260904070946 66 163 0.0 0.0 0.00 0.36 0.36 95 1013.7
20260904070445 66 198 0.0 1.0 0.00 0.36 0.36 95 1013.6
20260904065940 66 198 0.0 0.0 0.00 0.36 0.36 95 1013.7
20260904065436 66 187 0.0 0.0 0.00 0.36 0.36 95 1013.4
20260904064931 66 160 0.0 0.0 0.00 0.36 0.36 95 1013.4
20260904064427 66 117 1.0 1.0 0.00 0.36 0.36 95 1013.6
20260904063922 66 164 0.0 0.0 0.00 0.36 0.36 95 1013.5
20260904063419 67 201 0.0 0.0 0.00 0.36 0.36 95 1013.6
20260904062913 67 1 0.0 1.0 0.00 0.36 0.36 95 1013.7
20260904062409 67 184 0.0 0.0 0.00 0.36 0.36 95 1013.7
20260904061905 67 161 0.0 0.0 0.00 0.36 0.36 95 1013.5
20260904061401 68 183 0.0 0.0 0.00 0.36 0.36 95 1013.7
20260904060857 68 189 0.0 0.0 0.00 0.36 0.36 95 1013.9
20260904060353 68 191 0.0 0.0 0.00 0.36 0.36 95 1013.7
20260904055848 68 113 1.0 1.0 0.00 0.36 0.36 95 1013.8
20260904055343 68 188 0.0 0.0 0.00 0.36 0.36 95 1014.1
20260904054838 68 182 0.0 0.0 0.00 0.36 0.36 95 1014.1
20260904054334 68 178 0.0 0.0 0.00 0.36 0.36 95 1013.9
20260904053829 68 178 0.0 0.0 0.00 0.36 0.36 95 1014.2
20260904053328 68 171 0.0 0.0 0.00 0.36 0.36 95 1014.0
20260904052825 69 169 0.0 0.0 0.00 0.36 0.36 95 1014.2
20260904052321 69 167 0.0 0.0 0.00 0.36 0.36 95 1014.1
20260904051812 69 162 0.0 0.0 0.00 0.36 0.36 95 1014.2
20260904051307 69 162 0.0 0.0 0.00 0.36 0.36 95 1014.3
20260904050802 69 164 0.0 0.0 0.00 0.36 0.36 95 1014.3
20260904050258 69 191 0.0 0.0 0.00 0.36 0.36 95 1014.3
20260904045752 69 191 0.0 0.0 0.00 0.36 0.36 95 1014.3
20260904045247 69 182 0.0 0.0 0.05 0.36 0.36 95 1014.3
20260904044742 69 201 0.0 0.0 0.24 0.36 0.36 95 1014.4
20260904044239 69 105 2.0 2.0 0.31 0.35 0.35 95 1014.5
20260904043735 69 185 0.0 0.0 0.31 0.32 0.32 95 1014.6
20260904043231 70 234 1.0 1.0 0.54 0.30 0.30 95 1014.6
20260904042726 70 220 0.0 1.0 0.71 0.27 0.27 95 1014.7
20260904042223 70 297 3.0 3.0 0.54 0.20 0.20 95 1015.1
20260904041722 70 33 1.0 2.0 0.54 0.15 0.15 95 1014.8
20260904041218 70 184 0.0 0.0 0.61 0.11 0.11 95 1014.8
20260904040714 70 248 1.0 2.0 0.47 0.06 0.06 95 1014.6
20260904040210 70 285 1.0 2.0 0.35 0.01 0.01 95 1014.5
20260904035705 70 5 2.0 2.0 0.19 0.44 0.44 95 1014.3
20260904035201 70 206 1.0 2.0 0.07 0.42 0.42 95 1014.5
20260904034659 70 191 0.0 0.0 0.00 0.41 0.41 95 1014.3
20260904034155 70 166 0.0 0.0 0.00 0.41 0.41 95 1014.0
20260904033651 70 186 0.0 0.0 0.00 0.41 0.41 95 1014.2
20260904033148 70 176 0.0 0.0 0.00 0.41 0.41 95 1014.1
20260904032643 70 163 0.0 0.0 0.00 0.41 0.41 95 1014.2
20260904032142 70 173 0.0 0.0 0.00 0.41 0.41 95 1014.1
20260904031642 70 177 0.0 0.0 0.00 0.41 0.41 95 1014.1
20260904031138 70 183 0.0 0.0 0.00 0.41 0.41 95 1014.2
20260904030634 70 183 0.0 0.0 0.00 0.41 0.41 95 1014.2
20260904030128 70 151 0.0 0.0 0.00 0.41 0.41 95 1014.1
20260904025624 70 173 0.0 0.0 0.00 0.41 0.41 95 1014.3
20260904025119 70 156 0.0 0.0 0.00 0.41 0.41 95 1014.2
20260904024614 70 159 0.0 0.0 0.00 0.41 0.41 95 1014.1
20260904024110 70 174 0.0 0.0 0.00 0.41 0.41 95 1014.0
20260904023606 70 182 0.0 0.0 0.00 0.41 0.41 95 1014.3
20260904023102 70 182 0.0 0.0 0.00 0.41 0.41 95 1014.5
20260904022602 70 182 0.0 0.0 0.00 0.41 0.41 95 1014.3
20260904022059 70 182 0.0 0.0 0.00 0.41 0.41 95 1014.3
20260904021554 70 193 0.0 0.0 0.00 0.41 0.41 95 1014.4
20260904021049 70 193 0.0 0.0 0.05 0.41 0.41 95 1014.3
20260904020544 70 204 0.0 0.0 0.05 0.41 0.41 95 1014.8
20260904020039 70 188 0.0 0.0 0.00 0.40 0.40 95 1014.6
20260904015533 70 190 0.0 0.0 0.00 0.40 0.40 95 1014.7
20260904015033 70 191 0.0 0.0 0.00 0.40 0.40 95 1014.8
20260904014526 70 191 0.0 0.0 0.00 0.40 0.40 95 1014.6
20260904014022 70 189 0.0 0.0 0.00 0.40 0.40 95 1014.6
20260904013518 70 190 0.0 0.0 0.00 0.40 0.40 95 1014.8
20260904013015 70 186 0.0 0.0 0.00 0.40 0.40 95 1014.6
20260904012514 70 186 0.0 0.0 0.00 0.40 0.40 95 1014.7
20260904012009 70 190 0.0 0.0 0.00 0.40 0.40 95 1014.6
20260904011503 70 186 0.0 0.0 0.00 0.40 0.40 95 1014.9
20260904010959 70 189 0.0 0.0 0.00 0.40 0.40 95 1014.8
20260904010454 70 186 0.0 0.0 0.00 0.40 0.40 95 1014.8
20260904005949 70 189 0.0 0.0 0.00 0.40 0.40 95 1014.8
20260904005445 70 189 0.0 0.0 0.00 0.40 0.40 95 1014.7
20260904004939 70 191 0.0 0.0 0.00 0.40 0.40 95 1014.8
20260904004436 70 186 0.0 0.0 0.00 0.40 0.40 95 1014.6
20260904003936 70 198 0.0 0.0 0.00 0.40 0.40 95 1014.5
20260904003432 70 198 0.0 0.0 0.00 0.40 0.40 95 1014.4
20260904002927 70 214 0.0 0.0 0.00 0.40 0.40 95 1014.4
20260904002423 70 197 0.0 0.0 0.00 0.40 0.40 95 1014.5
20260904001922 70 196 0.0 0.0 0.00 0.40 0.40 95 1014.3
20260904001418 70 196 0.0 0.0 0.00 0.40 0.40 95 1014.3
20260904000912 70 196 0.0 0.0 0.00 0.40 0.40 95 1014.0
20260904000412 70 110 2.0 2.0 0.00 0.40 0.40 95 1014.4
20260903235907 70 164 0.0 0.0 0.00 0.40 0.40 95 1014.2
20260903235403 71 180 0.0 0.0 0.00 0.40 0.40 95 1014.2
20260903234902 70 180 0.0 0.0 0.00 0.40 0.40 95 1014.2
20260903234358 71 181 0.0 0.0 0.00 0.40 0.40 95 1014.2
20260903233854 71 191 0.0 0.0 0.00 0.40 0.40 95 1014.3
20260903233350 71 190 0.0 0.0 0.00 0.40 0.40 95 1014.4
20260903232849 71 199 0.0 0.0 0.00 0.40 0.40 95 1014.2
20260903232345 71 190 0.0 0.0 0.00 0.40 0.40 95 1014.4
20260903231844 72 190 0.0 0.0 0.00 0.40 0.40 95 1014.4
20260903231340 72 199 0.0 0.0 0.00 0.40 0.40 94 1014.3
20260903230835 72 199 0.0 0.0 0.00 0.40 0.40 94 1014.3
20260903230330 72 185 0.0 0.0 0.00 0.40 0.40 93 1014.3
20260903225826 72 184 0.0 0.0 0.00 0.40 0.40 93 1014.1
20260903225322 72 184 0.0 0.0 0.00 0.40 0.40 92 1014.2
20260903224818 73 194 1.0 1.0 0.00 0.40 0.40 91 1014.2
20260903224314 73 128 1.0 1.0 0.07 0.40 0.40 90 1014.0
20260903223810 73 132 1.0 1.0 0.73 0.40 0.40 89 1013.9
20260903223308 75 254 5.0 7.0 0.71 0.39 0.39 87 1014.1
20260903222803 77 308 3.0 5.0 0.05 0.28 0.28 85 1014.0
20260903222305 80 11 2.0 2.0 0.00 0.27 0.27 81 1013.6
20260903221757 80 202 0.0 1.0 0.00 0.27 0.27 78 1013.5
20260903221256 80 202 0.0 0.0 0.00 0.27 0.27 77 1013.6
20260903220754 81 176 1.0 1.0 0.00 0.27 0.27 76 1013.7
20260903220249 82 176 0.0 0.0 0.00 0.27 0.27 75 1013.5
20260903215742 82 176 0.0 0.0 0.00 0.27 0.27 74 1013.8
20260903215238 82 168 0.0 0.0 0.00 0.27 0.27 75 1013.7
20260903214736 82 143 1.0 1.0 0.00 0.27 0.27 74 1013.6
20260903214232 83 198 0.0 0.0 0.00 0.27 0.27 74 1013.5
20260903213726 82 200 0.0 0.0 0.00 0.27 0.27 73 1013.8
20260903213222 82 194 1.0 1.0 0.00 0.27 0.27 73 1013.7
20260903212718 81 196 1.0 1.0 0.00 0.27 0.27 74 1013.5
20260903212214 81 216 2.0 2.0 0.00 0.27 0.27 74 1013.8
20260903211707 81 207 1.0 1.0 0.00 0.27 0.27 74 1013.7
20260903211204 81 183 0.0 0.0 0.00 0.27 0.27 76 1013.7
20260903210700 81 215 1.0 2.0 0.00 0.27 0.27 76 1013.6
20260903210156 80 167 1.0 1.0 0.00 0.27 0.27 77 1014.0
20260903205655 80 109 1.0 1.0 0.00 0.27 0.27 76 1014.0
20260903205154 81 196 0.0 1.0 0.00 0.27 0.27 76 1013.8
20260903204650 80 255 2.0 2.0 0.00 0.27 0.27 76 1014.1
20260903204146 80 203 0.0 1.0 0.00 0.27 0.27 76 1014.2
20260903203641 80 248 2.0 2.0 0.00 0.27 0.27 74 1014.1
20260903203136 80 173 1.0 1.0 0.00 0.27 0.27 75 1014.1
20260903202631 81 316 3.0 3.0 0.00 0.27 0.27 74 1014.1
20260903202126 81 227 1.0 2.0 0.00 0.27 0.27 73 1014.0
20260903201621 82 184 1.0 1.0 0.00 0.27 0.27 72 1014.1
20260903201120 82 316 3.0 5.0 0.00 0.27 0.27 72 1014.2
20260903200615 82 355 4.0 6.0 0.00 0.27 0.27 71 1014.2
20260903200110 82 313 3.0 3.0 0.00 0.27 0.27 72 1014.3
20260903195606 82 186 0.0 0.0 0.00 0.27 0.27 72 1014.2
20260903195102 81 216 2.0 2.0 0.00 0.27 0.27 73 1014.1
20260903194557 80 203 0.0 0.0 0.00 0.27 0.27 77 1013.9
20260903194052 80 171 0.0 0.0 0.00 0.27 0.27 76 1014.0
20260903193548 80 146 0.0 0.0 0.00 0.27 0.27 76 1014.1
20260903193043 80 14 3.0 5.0 0.00 0.27 0.27 75 1014.3
20260903192540 81 89 2.0 3.0 0.00 0.27 0.27 74 1014.3
20260903192034 83 218 1.0 1.0 0.00 0.27 0.27 72 1013.9
20260903191531 82 255 1.0 1.0 0.00 0.27 0.27 72 1014.3
20260903191025 82 232 1.0 2.0 0.00 0.27 0.27 73 1014.5
20260903190525 82 305 2.0 2.0 0.00 0.27 0.27 71 1014.5
20260903190024 83 289 3.0 3.0 0.00 0.27 0.27 69 1014.5
20260903185520 82 229 1.0 2.0 0.00 0.27 0.27 71 1014.5
20260903185015 82 286 3.0 5.0 0.00 0.27 0.27 72 1014.7
20260903184506 82 288 3.0 3.0 0.00 0.27 0.27 72 1014.6